sat.trackr.live / text

‹ back to catalog

STARLINK-33907

NORAD 63769 · 2025-089U

PAYLOAD ACTIVE UNKNOWN

§ Identity

Operator
Country
US
Launch date
2025-04-29
Launch site
AFETR
Launch vehicle
Mass (kg)
RCS (m²)

Purposes: comms

External: N2YO · Heavens-Above · Gunter

§ Orbital elements

Epoch: 2026-09-20T09:21:50.163552Z

Period
94.27 min
Inclination
43.0029°
Eccentricity
0.0001306
Mean motion
15.27584439 rev/d
Perigee alt
482.1 km
Apogee alt
483.9 km
Semi-major
6,861.2 km
B*
2.4638e-4
RAAN
25.7384°
Arg perigee
263.3302°
Mean anomaly
96.7401°
Rev number
7,868

§ Raw data

STARLINK-339071 63769U 25089U   26263.39016393  .00006525  00000+0  24638-3 0  99912 63769  43.0029  25.7384 0001306 263.3302  96.7401 15.27584439 78683

JSON: /api/v1/satellites/63769 · /tle

For live sub-satellite position, see the globe view (requires WebGL).

§ Visibility from observer

Set your observer location to see the next 7 days of passes ≥ 10°. The values pass through the URL so the page stays shareable.

No JS? Fill the form by hand. The geolocation button needs JavaScript.